LKW-1 (43034 NORAD) Tracking and Keplerian Element Data

This shows tracking and keplerian element data for the satellite.

Feedback or suggestion? Click here.




ElementValue
Catalog43034
NameLKW-1
Epoch Orbit456
Epoch Day2.11774128
Epoch Year2018
RAAN79.5689
Inclination97.4589
Eccentricity0.0012534
Argument of Perigee149.0712
Mean Anonmoly271.5202
Mean Motion15.23310669
Decay Rate8.26E-06
L11 43034U 17077A 18002.11774128 .00000826 00000-0 37746-4 0 9995
L22 43034 97.4589 79.5689 0012534 149.0712 271.5202 15.23310669 4561

Live tracking and technical data element details for LKW-1 (NORAD 43034). LKW-1 can be tracked NOW for your location showing map with azimuth and elevation plus other details from your city location.

Track the satellite on the map from your city or location and see movement details for azimuth, elevation, latitude, longitude, range, height, and movement on the map or in text.







IsCatalogInMostPopularTable: catalog: 43034, numindb: 119
Update: records affected: 1



GetName: 43034 LKW-1

Hit Count: updated at: Mon, 19 Nov 2018 13:09:19 GMT